Preston, Minnesota, United States (55965)
Lat: 43.67N, Lon: 92.08W
Wx Zone: MNZ095
Local Info
Past Weather Observations for Monday, February 23, 2015

NOTE: This archive is for the closest National Weather Service station to Preston. Information may differ from the station used for current weather conditions.

Click here for Long-term Archive

Time Weather Temperature Dewpoint Humidity Pressure Winds Precip Visibility
23:55
Clear
12°F / -11°C 1°F / -17°C 62% 29.98 in
(1015 mb)
SW 17.3 mph
(SW 28 kph)
- 10SM
23:35
Clear
12°F / -11°C °F / -18°C 57% 29.98 in
(1015 mb)
SW 24.2 mph
(SW 39 kph)
- 10SM
23:14
Clear
10°F / -12°C °F / -18°C 61% 29.98 in
(1015 mb)
SW 21.9 mph
(SW 35 kph)
- 10SM
22:55
Clear
10°F / -12°C °F / -18°C 61% 30.01 in
(1016 mb)
SW 24.2 mph
(SW 39 kph)
- 10SM
22:35
Clear
10°F / -12°C °F / -18°C 61% 30.04 in
(1017 mb)
SW 24.2 mph
(SW 39 kph)
- 10SM
22:14
Clear
10°F / -12°C °F / -18°C 61% 30.04 in
(1017 mb)
SW 20.7 mph
(SW 33 kph)
- 10SM
21:55
Clear
10°F / -12°C °F / -18°C 61% 30.06 in
(1018 mb)
SW 21.9 mph
(SW 35 kph)
- 10SM
21:35
Clear
9°F / -13°C °F / -18°C 66% 30.09 in
(1019 mb)
SW 19.6 mph
(SW 32 kph)
- 10SM
21:15
Clear
9°F / -13°C °F / -18°C 66% 30.09 in
(1019 mb)
SW 23 mph
(SW 37 kph)
- 10SM
20:55
Clear
9°F / -13°C °F / -18°C 66% 30.12 in
(1020 mb)
SW 19.6 mph
(SW 32 kph)
- 10SM
20:35
Clear
9°F / -13°C °F / -18°C 66% 30.12 in
(1020 mb)
SW 23 mph
(SW 37 kph)
- 10SM
20:15
Clear
9°F / -13°C -2°F / -19°C 61% 30.15 in
(1021 mb)
SW 16.1 mph
(SW 26 kph)
- 10SM
19:55
Clear
9°F / -13°C -2°F / -19°C 61% 30.15 in
(1021 mb)
SW 17.3 mph
(SW 28 kph)
- 10SM
19:35
Clear
9°F / -13°C -2°F / -19°C 61% 30.15 in
(1021 mb)
SW 21.9 mph
(SW 35 kph)
- 10SM
19:15
Clear
9°F / -13°C -2°F / -19°C 61% 30.18 in
(1022 mb)
SSE 19.6 mph
(SSE 32 kph)
- 10SM
18:55
Clear
9°F / -13°C -2°F / -19°C 61% 30.21 in
(1023 mb)
SW 16.1 mph
(SW 26 kph)
- 10SM
18:35
Clear
9°F / -13°C -2°F / -19°C 61% 30.21 in
(1023 mb)
SW 18.4 mph
(SW 30 kph)
- 10SM
18:15
Clear
9°F / -13°C -2°F / -19°C 61% 30.24 in
(1024 mb)
SSE 19.6 mph
(SSE 32 kph)
- 10SM
17:54
Clear
9°F / -13°C -2°F / -19°C 61% 30.24 in
(1024 mb)
SSE 16.1 mph
(SSE 26 kph)
- 10SM
17:35
Clear
10°F / -12°C -2°F / -19°C 56% 30.27 in
(1025 mb)
SSE 16.1 mph
(SSE 26 kph)
- 10SM
17:15
Clear
10°F / -12°C -2°F / -19°C 56% 30.27 in
(1025 mb)
SSE 19.6 mph
(SSE 32 kph)
- 10SM
16:54
Clear
9°F / -13°C -2°F / -19°C 61% 30.3 in
(1026 mb)
SW 18.4 mph
(SW 30 kph)
- 10SM
16:35
Clear
10°F / -12°C -2°F / -19°C 56% 30.33 in
(1027 mb)
SW 15 mph
(SW 24 kph)
- 10SM
16:15
Clear
9°F / -13°C -4°F / -20°C 56% 30.36 in
(1028 mb)
SW 18.4 mph
(SW 30 kph)
- 10SM
15:55
Clear
9°F / -13°C -4°F / -20°C 56% 30.39 in
(1029 mb)
SW 16.1 mph
(SW 26 kph)
- 10SM
15:35
Clear
9°F / -13°C -4°F / -20°C 56% 30.39 in
(1029 mb)
SW 16.1 mph
(SW 26 kph)
- 10SM
15:15
Clear
7°F / -14°C -4°F / -20°C 61% 30.39 in
(1029 mb)
SW 15 mph
(SW 24 kph)
- 10SM
14:55
Clear
7°F / -14°C -6°F / -21°C 56% 30.42 in
(1030 mb)
SW 12.7 mph
(SW 20 kph)
- 10SM
14:35
Clear
7°F / -14°C -6°F / -21°C 56% 30.45 in
(1031 mb)
SW 10.4 mph
(SW 17 kph)
- 10SM
14:15
Clear
5°F / -15°C -8°F / -22°C 55% 30.45 in
(1031 mb)
SW 9.2 mph
(SW 15 kph)
- 10SM
13:55
Clear
5°F / -15°C -8°F / -22°C 55% 30.48 in
(1032 mb)
SW 12.7 mph
(SW 20 kph)
- 10SM
13:35
Clear
3°F / -16°C -9°F / -23°C 55% 30.51 in
(1033 mb)
SW 11.5 mph
(SW 19 kph)
- 10SM
13:14
Clear
3°F / -16°C -9°F / -23°C 55% 30.54 in
(1034 mb)
SW 9.2 mph
(SW 15 kph)
- 10SM
12:55
Clear
3°F / -16°C -9°F / -23°C 55% 30.54 in
(1034 mb)
SSW 9.2 mph
(SSW 15 kph)
- 10SM
12:35
Clear
1°F / -17°C -9°F / -23°C 60% 30.57 in
(1035 mb)
SW 8.1 mph
(SW 13 kph)
- 10SM
12:15
Clear
1°F / -17°C -11°F / -24°C 55% 30.57 in
(1035 mb)
SW 9.2 mph
(SW 15 kph)
- 10SM
11:54
Clear
°F / -18°C -13°F / -25°C 54% 30.6 in
(1036 mb)
SW 8.1 mph
(SW 13 kph)
- 10SM
11:35
Clear
°F / -18°C -13°F / -25°C 54% 30.6 in
(1036 mb)
SW 8.1 mph
(SW 13 kph)
- 10SM
11:15
Clear
-2°F / -19°C -13°F / -25°C 59% 30.6 in
(1036 mb)
SW 8.1 mph
(SW 13 kph)
- 10SM
10:55
Clear
-2°F / -19°C -15°F / -26°C 54% 30.6 in
(1036 mb)
SW 5.8 mph
(SW 9 kph)
- 10SM
10:35
Clear
-2°F / -19°C -15°F / -26°C 54% 30.63 in
(1037 mb)
SW 5.8 mph
(SW 9 kph)
- 10SM
10:15
Clear
-4°F / -20°C -15°F / -26°C 59% 30.63 in
(1037 mb)
W 3.5 mph
(W 6 kph)
- 10SM
09:55
Clear
-6°F / -21°C -17°F / -27°C 59% 30.63 in
(1037 mb)
SSW 4.6 mph
(SSW 7 kph)
- 10SM
09:35
Clear
-8°F / -22°C -17°F / -27°C 64% 30.63 in
(1037 mb)
Calm - 10SM
09:14
Clear
-9°F / -23°C -18°F / -28°C 64% 30.66 in
(1038 mb)
W 4.6 mph
(W 7 kph)
- 10SM
08:55
Clear
-11°F / -24°C -18°F / -28°C 70% 30.66 in
(1038 mb)
W 5.8 mph
(W 9 kph)
- 10SM
08:35
Clear
-13°F / -25°C -20°F / -29°C 69% 30.66 in
(1038 mb)
W 4.6 mph
(W 7 kph)
- 10SM
08:15
Clear
-13°F / -25°C -20°F / -29°C 69% 30.66 in
(1038 mb)
W 5.8 mph
(W 9 kph)
- 10SM
07:55
Clear
-15°F / -26°C -20°F / -29°C 76% 30.66 in
(1038 mb)
W 4.6 mph
(W 7 kph)
- 10SM
07:35
Clear
-15°F / -26°C -20°F / -29°C 76% 30.66 in
(1038 mb)
SSW 4.6 mph
(SSW 7 kph)
- 10SM
07:15
Clear
-15°F / -26°C -22°F / -30°C 69% 30.66 in
(1038 mb)
W 5.8 mph
(W 9 kph)
- 10SM
06:54
Clear
-17°F / -27°C -22°F / -30°C 76% 30.69 in
(1039 mb)
W 5.8 mph
(W 9 kph)
- 10SM
06:35
Clear
-17°F / -27°C -22°F / -30°C 76% 30.69 in
(1039 mb)
WNW 6.9 mph
(WNW 11 kph)
- 10SM
06:15
Clear
-15°F / -26°C -22°F / -30°C 69% 30.69 in
(1039 mb)
NW 5.8 mph
(NW 9 kph)
- 10SM
05:55
Clear
-15°F / -26°C -20°F / -29°C 76% 30.69 in
(1039 mb)
W 5.8 mph
(W 9 kph)
- 10SM
05:34
Clear
-17°F / -27°C -22°F / -30°C 76% 30.69 in
(1039 mb)
NW 6.9 mph
(NW 11 kph)
- 10SM
05:15
Clear
-17°F / -27°C -22°F / -30°C 76% 30.69 in
(1039 mb)
NW 8.1 mph
(NW 13 kph)
- 10SM
04:55
Clear
-15°F / -26°C -20°F / -29°C 76% 30.69 in
(1039 mb)
NW 8.1 mph
(NW 13 kph)
- 10SM
04:35
Clear
-15°F / -26°C -22°F / -30°C 69% 30.69 in
(1039 mb)
WNW 8.1 mph
(WNW 13 kph)
- 10SM
04:15
Clear
-15°F / -26°C -22°F / -30°C 69% 30.69 in
(1039 mb)
NW 8.1 mph
(NW 13 kph)
- 10SM
03:55
Clear
-15°F / -26°C -20°F / -29°C 76% 30.69 in
(1039 mb)
NW 6.9 mph
(NW 11 kph)
- 10SM
03:35
Clear
-13°F / -25°C -20°F / -29°C 69% 30.69 in
(1039 mb)
NW 8.1 mph
(NW 13 kph)
- 10SM
03:15
Clear
-13°F / -25°C -20°F / -29°C 69% 30.69 in
(1039 mb)
NW 9.2 mph
(NW 15 kph)
- 10SM
02:55
Clear
-13°F / -25°C -20°F / -29°C 69% 30.71 in
(1040 mb)
NW 9.2 mph
(NW 15 kph)
- 10SM
02:35
Clear
-13°F / -25°C -18°F / -28°C 76% 30.71 in
(1040 mb)
NW 8.1 mph
(NW 13 kph)
- 10SM
02:15
Clear
-13°F / -25°C -18°F / -28°C 76% 30.71 in
(1040 mb)
NW 9.2 mph
(NW 15 kph)
- 10SM
01:54
Clear
-13°F / -25°C -18°F / -28°C 76% 30.71 in
(1040 mb)
NW 10.4 mph
(NW 17 kph)
- 10SM
01:35
Clear
-13°F / -25°C -18°F / -28°C 76% 30.71 in
(1040 mb)
NW 11.5 mph
(NW 19 kph)
- 10SM
01:15
Clear
-11°F / -24°C -20°F / -29°C 63% 30.71 in
(1040 mb)
NW 9.2 mph
(NW 15 kph)
- 10SM
00:55
Clear
-11°F / -24°C -18°F / -28°C 70% 30.71 in
(1040 mb)
NW 9.2 mph
(NW 15 kph)
- 10SM
00:34
Clear
-11°F / -24°C -18°F / -28°C 70% 30.71 in
(1040 mb)
NW 9.2 mph
(NW 15 kph)
- 10SM
00:15
Clear
-11°F / -24°C -18°F / -28°C 70% 30.71 in
(1040 mb)
NW 8.1 mph
(NW 13 kph)
- 10SM
Time Weather Temperature Dewpoint Humidity Pressure Winds Precip Visibility


Weather for websites

WeatherForYou.com, LLC is not responsible for any damages or problems caused by this service. Current weather conditions are obtained from the closest station including government and personal stations which may have varying degrees of accuracy. Weather forecasts are derived from the NOAA NDFD. Like all things, this site belongs to Jesus Christ... He just trusts me to maintain it. If you have any questions or comments email webmaster@weatherforyou.com

Copyright © 2015, WeatherForYou.com LLC. All rights reserved.